Flag for U.S.A. Weather past 2 weeks in Port St. Lucie, Florida, U.S.A.

Now
64 °F

Passing clouds.


Feels Like: 64 °F
Forecast: 63 / 77 °F
Wind: 9 mph from North

Location: Witham Field Airport


UV Index: 7 (High)

Visibility: 10 mi


Pressure: 30.05 "Hg

Humidity: 88%

Dew point: 61 °F

Location of Port St. LucieLocation

Historic Weather in Port St. Lucie

°F

Port St. Lucie temperature yesterday

Maximum temperature yesterday: 82 °F (at 12:47 PM)
Minimum temperature yesterday: 63 °F (at 11:35 PM)
Average temperature yesterday: 73 °F

Past Weeks' High & Low Weather Summary

 TemperatureHumidityPressure
High91 °F (Apr 7, 2:47 PM)100% (Apr 15, 4:35 AM)30.29 "Hg (Apr 15, 4:35 AM)
Low59 °F (Apr 10, 4:35 AM)19% (Apr 15, 4:47 PM)29.74 "Hg (Apr 8, 3:47 PM)
Average73 °F72%30.04 "Hg
* Reported Apr 5 8:15 PM — Apr 20 8:35 PM, Port St. Lucie, Weather by CustomWeather, © 2014

Note: Actual official high and low records may vary slightly from our data, if they occured in-between our weather recording intervals... More about our weather records

Advertising

Historic Weather Conditions — Data for Previous 24 hours

 ConditionsComfort  
Time TempWeatherWind HumidityBarometerVisibility
8:35 PM
Apr 20
64 °FSunny.9 mph88%30.04 "Hg10 mi
8:15 PM64 °FSunny.9 mph88%30.04 "Hg10 mi
6:47 PM68 °FPartly sunny.10 mph83%30.03 "Hg7 mi
5:47 PM70 °FBroken clouds.12 mph78%30.03 "Hg7 mi
4:47 PM68 °FMore clouds than sun.9 mph83%30.03 "Hg7 mi
3:47 PM68 °FFog.12 mph83%30.03 "Hg6 mi
2:47 PM72 °FOvercast.8 mph65%30.03 "Hg7 mi
1:47 PM72 °FMostly cloudy.12 mph73%30.03 "Hg7 mi
12:47 PM72 °FMostly cloudy.10 mph73%30.03 "Hg7 mi
11:47 AM68 °FMostly cloudy.10 mph83%30.05 "Hg7 mi
10:47 AM68 °FMostly cloudy.10 mph83%30.04 "Hg7 mi
9:47 AM66 °FOvercast.10 mph88%30.04 "Hg7 mi
8:47 AM64 °FMostly cloudy.9 mph83%30.03 "Hg7 mi
7:47 AM63 °FOvercast.8 mph88%30.01 "Hg7 mi
6:47 AM63 °FOvercast.10 mph100%29.98 "Hg7 mi
6:15 AM61 °FOvercast.9 mph88%29.98 "Hg10 mi
5:55 AM61 °FPassing clouds.9 mph83%29.97 "Hg10 mi
5:35 AM61 °FOvercast.9 mph83%29.97 "Hg10 mi
5:15 AM61 °FPassing clouds.7 mph83%29.96 "Hg10 mi
4:55 AM61 °FPassing clouds.8 mph83%29.96 "Hg10 mi
4:35 AM61 °FOvercast.7 mph88%29.96 "Hg10 mi
4:15 AM61 °FPassing clouds.8 mph83%29.96 "Hg10 mi
3:55 AM61 °FPassing clouds.8 mph83%29.96 "Hg10 mi
3:35 AM63 °FOvercast.7 mph83%29.97 "Hg10 mi
3:15 AM63 °FOvercast.8 mph83%29.98 "Hg10 mi
2:55 AM61 °FOvercast.9 mph83%29.98 "Hg10 mi
2:35 AM61 °FPassing clouds.9 mph83%29.98 "Hg10 mi
2:15 AM61 °FClear.8 mph83%29.99 "Hg10 mi
1:55 AM61 °FClear.6 mph83%29.99 "Hg10 mi
1:35 AM61 °FClear.7 mph83%30.00 "Hg10 mi
1:15 AM61 °FClear.9 mph83%30.00 "Hg10 mi
12:55 AM63 °FClear.9 mph77%30.00 "Hg10 mi
12:35 AM63 °FClear.12 mph83%30.00 "Hg10 mi
12:15 AM63 °FClear.10 mph83%30.00 "Hg10 mi
11:55 PM
Apr 19
63 °FClear.9 mph88%29.99 "Hg10 mi
11:35 PM63 °FClear.10 mph88%29.99 "Hg10 mi
11:15 PM64 °FClear.13 mph83%29.98 "Hg10 mi
10:55 PM64 °FClear.8 mph88%29.98 "Hg10 mi
10:35 PM66 °FClear.10 mph83%29.98 "Hg10 mi
10:15 PM68 °FClear.9 mph73%29.97 "Hg10 mi
9:55 PM68 °FPassing clouds.10 mph73%29.97 "Hg10 mi
9:35 PM70 °FPassing clouds.12 mph69%29.96 "Hg10 mi
9:15 PM70 °FOvercast.10 mph69%29.95 "Hg10 mi
Weather by CustomWeather, © 2014

See weather overview